Regional Weather Roundup
Issued by NWS Goodland, KS

Home | Current Version | Previous Version | Text Only | Print | Product List | Glossary Off
Versions: 1 2 3 4 5 6 7 8 9 10 11 12 13 14 15 16 17 18 19 20 21 22 23 24 25 26 27 28 29 30 31 32 33 34 35 36 37 38 39 40 41 42 43 44 45 46 47 48 49 50

000
ASUS43 KGLD 212308
RWRGLD

GOODLAND FORECAST AREA HOURLY WEATHER ROUNDUP
NATIONAL WEATHER SERVICE GOODLAND KS
500 PM MDT TUE OCT 21 2014

...OFFICIAL OBSERVATIONS...

CITY           SKY/WX    TMP DP  RH WIND       PRES   REMARKS
GOODLAND KS    SUNNY     77  44  30 S20G29    29.92F
HILL CITY KS   CLEAR     78  55  44 S16       29.95F
IMPERIAL NEB   CLEAR     77  51  40 S20G26    29.88F
MCCOOK NEB     CLEAR     77  54  44 S18G25    29.92S
AKRON CO       SUNNY     74  38  27 S18G26    29.90F
BURLINGTON CO  SUNNY     75  40  28 S18G25    29.94F
LIMON CO       MOSUNNY   69  39  33 S15       29.95F
$$

...UNOFFICIAL OBSERVATIONS...

CITY           SKY/WX    TMP DP  RH WIND       PRES   REMARKS
COLBY KS       CLEAR     77  55  47 SE12G18   29.94F
GOVE KS          N/A     78  32  18 MISG        N/A
NORTON KS      CLEAR     75  50  41 SE12G20   29.93S
SHARON SPRINGS   N/A     75  48  38 S17G29      N/A
TRENTON NEB      N/A     79  32  18 S18         N/A
KIT CARSON CO    N/A     76  43  31 N14G22      N/A
YUMA CO          N/A     76  37  24 S14G24      N/A
$$



USA.gov is the U.S. government's official web portal to all federal, state and local government web resources and services.